Home > Weather > Spartanburg > Past weeks

Flag for USA Past Weather in Spartanburg, South Carolina, USA — Yesterday and Last 2 Weeks

Now
81 °F

Sunny.


Feels Like: 83 °F
Forecast: 74 / 94 °F
Wind: 3 mph from West

Location: Spartanburg Memorial

Current Time: Jul 23, 2016 at 9:10:35 PM

Latest Report: Jul 23, 2016 at 8:35 PM


Visibility: 10 mi

Pressure: 29.97 "Hg

Humidity: 66%

Dew Point: 68 °F

Location of SpartanburgLocation

Past Weather in Spartanburg — Graph

°F

Spartanburg Temperature Yesterday

Maximum temperature yesterday: 91 °F (at 2:35 PM)
Minimum temperature yesterday: 68 °F (at 5:55 AM)
Average temperature yesterday: 78 °F

High & Low Weather Summary for the Past Weeks

 TemperatureHumidityPressure
High97 °F (Jul 14, 3:55 PM)100% (Jul 16, 11:35 PM)30.28 "Hg (Jul 16, 11:35 PM)
Low68 °F (Jul 9, 4:35 AM)22% (Jul 14, 6:35 PM)29.91 "Hg (Jul 8, 7:35 PM)
Average79 °F70%30.09 "Hg
* Reported Jul 8 7:15 PM — Jul 23 7:55 PM, Spartanburg, Weather by CustomWeather, © 2016

Note: Actual official high and low records may vary slightly from our data, if they occured in-between our weather recording intervals... More about our weather records

Advertising

Spartanburg Weather History for the Previous 24 Hours

Scroll right to see more
 ConditionsComfort  
Time TempWeatherWind HumidityBarometerVisibility
7:55 PM
Sat, Jul 23
82 °FSunny.No wind66%29.99 "Hg10 mi
7:35 PM82 °FSunny.3 mph62%29.99 "Hg10 mi
7:15 PM84 °FSunny.7 mph58%29.99 "Hg10 mi
6:55 PM86 °FSunny.7 mph55%30.00 "Hg10 mi
6:35 PM86 °FSunny.7 mph55%29.99 "Hg10 mi
6:15 PM84 °FSunny.3 mph62%29.99 "Hg10 mi
5:55 PM86 °FSunny.3 mph59%30.00 "Hg10 mi
5:35 PM86 °FScattered clouds.10 mph59%30.00 "Hg10 mi
5:15 PM86 °FScattered clouds.9 mph59%30.00 "Hg10 mi
4:55 PM84 °FScattered clouds.14 mph62%30.00 "Hg10 mi
4:35 PM88 °FScattered clouds.8 mph52%29.99 "Hg10 mi
4:15 PM90 °FSunny.7 mph49%29.99 "Hg10 mi
3:55 PM93 °FSunny.No wind36%29.97 "Hg10 mi
3:35 PM95 °FSunny.No wind36%29.97 "Hg10 mi
3:15 PM91 °FSunny.No wind41%29.98 "Hg10 mi
2:55 PM93 °FSunny.No wind39%29.98 "Hg10 mi
2:35 PM91 °FSunny.No wind44%29.99 "Hg10 mi
2:15 PM91 °FSunny.No wind41%29.99 "Hg10 mi
1:55 PM91 °FSunny.3 mph46%30.00 "Hg10 mi
1:35 PM90 °FSunny.3 mph49%30.01 "Hg7 mi
1:15 PM90 °FSunny.3 mph49%30.01 "Hg10 mi
12:55 PM90 °FSunny.No wind49%30.02 "Hg10 mi
12:35 PM88 °FSunny.No wind52%30.03 "Hg10 mi
12:15 PM88 °FSunny.No wind55%30.04 "Hg10 mi
11:55 AM88 °FSunny.No wind59%30.04 "Hg10 mi
11:35 AM86 °FSunny.No wind62%30.04 "Hg10 mi
11:15 AM84 °FSunny.No wind62%30.04 "Hg10 mi
10:55 AM82 °FSunny.No wind66%30.03 "Hg10 mi
10:35 AM82 °FSunny.No wind66%30.03 "Hg10 mi
10:15 AM81 °FSunny.3 mph70%30.02 "Hg10 mi
9:55 AM79 °FSunny.No wind74%30.02 "Hg7 mi
9:35 AM79 °FSunny.No wind74%30.02 "Hg10 mi
9:15 AM77 °FSunny.No wind79%30.02 "Hg10 mi
8:55 AM75 °FSunny.No wind83%30.02 "Hg10 mi
8:35 AM73 °FSunny.No wind83%30.02 "Hg10 mi
8:15 AM73 °FSunny.No wind89%30.02 "Hg10 mi
7:55 AM72 °FSunny.No wind88%30.02 "Hg10 mi
7:35 AM72 °FSunny.No wind88%30.02 "Hg10 mi
7:15 AM72 °FClear.No wind88%30.02 "Hg10 mi
6:55 AM70 °FClear.No wind94%30.02 "Hg10 mi
6:35 AM70 °FClear.No wind94%30.02 "Hg10 mi
6:15 AM70 °FClear.No wind94%30.02 "Hg10 mi
5:55 AM70 °FClear.No wind94%30.02 "Hg10 mi
5:35 AM70 °FClear.No wind94%30.01 "Hg10 mi
4:55 AM70 °FClear.No wind94%30.01 "Hg10 mi
4:35 AM70 °FClear.No wind94%30.02 "Hg10 mi
4:15 AM70 °FClear.No wind94%30.02 "Hg10 mi
3:55 AM70 °FClear.No wind94%30.01 "Hg10 mi
3:35 AM70 °FClear.No wind94%30.02 "Hg10 mi
3:15 AM72 °FClear.No wind88%30.02 "Hg10 mi
2:55 AM72 °FClear.No wind88%30.03 "Hg10 mi
2:35 AM72 °FClear.No wind88%30.03 "Hg10 mi
2:15 AM72 °FClear.No wind88%30.03 "Hg10 mi
1:55 AM72 °FClear.No wind88%30.04 "Hg10 mi
1:35 AM72 °FClear.No wind88%30.04 "Hg10 mi
1:15 AM73 °FClear.No wind83%30.04 "Hg10 mi
12:55 AM73 °FClear.No wind83%30.04 "Hg10 mi
12:35 AM72 °FClear.No wind94%30.05 "Hg10 mi
12:15 AM72 °FClear.No wind94%30.05 "Hg10 mi
11:55 PM
Fri, Jul 22
72 °FClear.No wind94%30.05 "Hg10 mi
11:35 PM72 °FClear.No wind94%30.05 "Hg10 mi
11:15 PM72 °FClear.No wind94%30.04 "Hg10 mi
10:55 PM73 °FClear.No wind89%30.04 "Hg10 mi
10:35 PM73 °FClear.No wind89%30.04 "Hg10 mi
10:15 PM73 °FClear.No wind89%30.03 "Hg10 mi
9:55 PM73 °FClear.No wind89%30.03 "Hg10 mi
9:15 PM73 °FSunny.No wind89%30.03 "Hg10 mi
Weather by CustomWeather, © 2016

See weather overviewHow to use our weather pages